Regional Weather Roundup
Issued by NWS Glasgow, MT

Home | Current Version | Previous Version | Text Only | Print | Product List | Glossary On
Versions: 1 2 3 4 5 6 7 8 9 10 11 12 13 14 15 16 17 18 19 20 21 22 23 24 25 26 27 28 29 30 31 32 33 34 35 36 37 38 39 40 41 42 43 44 45 46 47 48 49 50
000
ASUS45 KGGW 272115
RWRGGW
HOURLY REGIONAL WEATHER ROUNDUP FOR NORTHEAST MONTANA
NATIONAL WEATHER SERVICE GLASGOW MONTANA
300 PM MDT THU JUL 27 2017

NOTE: "FAIR" INDICATES FEW OR NO CLOUDS BELOW 12,000 FEET WITH NO
SIGNIFICANT WEATHER AND/OR OBSTRUCTIONS TO VISISBILITY.

NORTHEAST MONTANA


CITY           SKY/WX    TMP DP  RH WIND       PRES   REMARKS
GLASGOW        SUNNY     92  52  25 MISG      29.93F
PLENTYWOOD       N/A     73  54  51 SE8G20      N/A
WOLF POINT     CLOUDY    91  56  30 S7G16     29.95F
JORDAN           N/A     90  52  27 E9        29.94F
WINNETT          N/A     92  45  19 N7          N/A
SIDNEY         CLOUDY    84  57  39 SE10      30.01F
GLENDIVE       RAIN      68  63  83 SE16      30.07R
MALTA            N/A     98  49  18 E7G16       N/A
SCOBEY           N/A     76  53  44 E10G17    30.00

FORT PECK REPORTS


CITY           SKY/WX    TMP DP  RH WIND       PRES   REMARKS
FORT PECK        N/A     88  56  33 SE12        N/A
THE PINES        N/A     92  47  21 SE6G14      N/A

SOUTHEAST MONTANA


CITY           SKY/WX    TMP DP  RH WIND       PRES   REMARKS
BILLINGS       MOSUNNY   90  46  21 S5        29.98F
MILES CITY     SUNNY     90  55  30 S18       29.94F
BAKER          CLOUDY    74  58  57 SE31G41   30.07R
LIVINGSTON     CLOUDY    89  43  20 SW10G17   30.06F

CENTRAL MONTANA


CITY           SKY/WX    TMP DP  RH WIND       PRES   REMARKS
HAVRE          CLOUDY    92  43  18 SW13      29.92F
LEWISTOWN      PTSUNNY   84  49  29 SE12      30.03F
GREAT FALLS    MOSUNNY   91  37  15 VRB3      30.00F
CUT BANK       FAIR      90  33  13 VRB6      30.00F
HELENA         SUNNY     92  42  17 NE8       30.01F
BUTTE          CLOUDY    79  39  23 W6        30.16F
BOZEMAN        SUNNY     82  46  28 VRB3      30.08F

WESTERN MONTANA


CITY           SKY/WX    TMP DP  RH WIND       PRES   REMARKS
MISSOULA       FAIR      85  47  26 VRB3      30.02F
KALISPELL      NOT AVBL

NORTH DAKOTA


CITY           SKY/WX    TMP DP  RH WIND       PRES   REMARKS
WILLISTON      CLOUDY    71  63  75 E7        30.04R
DICKINSON      CLOUDY    77  58  51 NE16G28   30.05F
MINOT          CLOUDY    83  57  41 VRB6      30.06F
BISMARCK       CLOUDY    83  56  39 E9        30.07F

SOUTHERN SASKATCHEWAN


CITY           SKY/WX    TMP DP  RH WIND       PRES   REMARKS
REGINA         MOSUNNY   88  52  29 SE10G18   29.99F
MOOSE JAW      MOSUNNY   90  48  24 SE13      29.97F
ESTEVAN        PTSUNNY   81  59  47 S2        30.04S
SWIFT CURRENT  SUNNY     88  48  25 E12G22    29.96F




USA.gov is the U.S. government's official web portal to all federal, state and local government web resources and services.